Location: Lafig�re
(44.4503°N, 4.0357°E)
Time: 09:42:12
(UTC+00:00)

Transit 2A Rocket - Visible Passes

Search period start: 24 January 2021 00:00
Search period end: 03 February 2021 00:00
Orbit: 592 x 910 km, 66.7° (Epoch: 23 January)

Date Brightness Start Highest point End Pass type
(mag) Time Alt. Az. Time Alt. Az. Time Alt. Az.
25 Jan 6.9 18:57:08 10° N 18:57:43 12° N 18:57:43 12° N visible
26 Jan 6.7 18:15:19 10° N 18:16:32 12° NNE 18:16:32 12° NNE visible
26 Jan 7.4 19:56:19 10° NNW 19:56:27 11° NNW 19:56:27 11° NNW visible
27 Jan 6.5 19:13:52 10° NNW 19:15:20 19° N 19:15:20 19° N visible
28 Jan 5.9 18:31:34 10° N 18:34:17 23° NNE 18:34:17 23° NNE visible
28 Jan 7.5 20:13:51 10° NW 20:14:14 12° NW 20:14:14 12° NW visible
29 Jan 6.1 17:49:30 10° N 17:52:20 16° NE 17:53:23 15° ENE visible
29 Jan 6.1 19:31:03 10° NW 19:33:19 30° NW 19:33:19 30° NW visible
30 Jan 4.5 18:48:28 10° NNW 18:52:34 59° NE 18:52:34 59° NE visible
30 Jan 7.8 20:32:30 10° WNW 20:32:31 10° WNW 20:32:31 10° WNW visible
31 Jan 5.1 18:06:04 10° NNW 18:10:06 34° NE 18:12:02 23° E visible
31 Jan 6.5 19:48:52 10° NW 19:52:00 25° W 19:52:00 25° W visible
01 Feb 5.8 17:23:50 10° N 17:27:15 21° NE 17:30:36 10° E visible
01 Feb 5.3 19:05:52 10° NW 19:10:03 48° WSW 19:11:48 30° S visible
02 Feb 4.4 18:23:09 10° NNW 18:27:32 89° ENE 18:31:50 10° SSE visible
